Location: Bacharowice
(49.9333°N, 19.5833°E)
Time: 03:11:47
(UTC+00:00)

Cosmos 1606 - Pass Details

Date: 11 May 2021
Orbit: 503 x 526 km, 82.5° (Epoch: 22 June)

Event Time Altitude Azimuth Distance (km) Brightness Sun altitude
Rises 18:43:54 0° 196° (SSW) 2,597 6.1 -4.7°
Reaches altitude 10° 18:46:01 10° 199° (SSW) 1,720 5.2 -5.0°
Maximum altitude 18:49:45 64° 282° (WNW) 571 3.2 -5.5°
Drops below altitude 10° 18:53:34 10° 4° (N) 1,748 5.9 -5.9°
Sets 18:55:44 0° 8° (N) 2,644 6.7 -6.2°
